Regional Weather Roundup
Issued by NWS Cleveland, OH

Home | Current Version | Previous Version | Text Only | Print | Product List | Glossary Off
Versions: 1 2 3 4 5 6 7 8 9 10 11 12 13 14 15 16 17 18 19 20 21 22 23 24 25 26 27 28 29 30 31 32 33 34 35 36 37 38 39 40 41 42 43 44 45 46 47 48 49 50

000
ASUS41 KCLE 151500
RWRCLE
OHIO REGIONAL WEATHER ROUNDUP
NATIONAL WEATHER SERVICE WILMINGTON, OH
1000 AM EST FRI DEC 15 2017

NOTE: "FAIR" INDICATES FEW OR NO CLOUDS BELOW 12,000 FEET WITH NO
SIGNIFICANT WEATHER AND/OR OBSTRUCTIONS TO VISIBILITY.

OHZ001>008-015>018-024>027-034-035-043-044-151600-
   NORTHWEST OHIO

CITY           SKY/WX    TMP DP  RH WIND       PRES   REMARKS
DEFIANCE       CLOUDY    24  16  71 SW13      29.91F WCI  12
FINDLAY        CLOUDY    24  14  65 S15       29.92F WCI  11
TOLEDO EXPRESS CLOUDY    24  16  71 SW12      29.90F WCI  13
TOLEDO EXEC    CLOUDY    24  14  65 SW13      29.92F WCI  12
LIMA           CLOUDY    24  16  71 SW14      29.93F WCI  12
$$

OHZ009>014-019>023-028>033-038-089-151600-
   NORTHEAST OHIO

CITY           SKY/WX    TMP DP  RH WIND       PRES   REMARKS
CLE-HOPKINS    CLOUDY    20  10  65 S12       29.97F WCI   8
CLE-LAKEFRONT  PTSUNNY   19   9  65 SE12      29.94F WCI   7
CUY CO. ARPT   CLOUDY    21  10  63 S10       29.94F WCI  10
LORAIN-ELYRIA  CLOUDY    16   8  71 SW10      29.95S WCI   4
ASHTABULA      CLOUDY    14  10  84 S8        29.94F WCI   3
AKRON-CANTON   CLOUDY    16   9  74 S7        29.93F WCI   6
WOOSTER        NOT AVBL
MANSFIELD      CLOUDY    19  10  68 S12       29.93S WCI   7
YOUNGSTOWN     CLOUDY    15  12  88 SW6       29.93F WCI   6
$$

OHZ042-051>053-060>062-070>072-077>081-151600-
  SOUTHWEST OHIO

CITY           SKY/WX    TMP DP  RH WIND       PRES   REMARKS
CINC-COVINGTON CLOUDY    25  19  78 SW8       30.03R WCI  16
CINC-LUNKEN    PTSUNNY   27  20  75 SW7       30.07R WCI  19
HAMILTON       CLOUDY    26  20  77 SW7       30.05R WCI  18
DAYTON         NOT AVBL
WRIGHT-PAT AFB CLOUDY    25  19  78 SW10      30.00R WCI  14
DAYTON GENERAL CLOUDY    24  18  77 SW8       29.99S WCI  15
WILMINGTON     FAIR      23  18  81 SW9       30.00R WCI  13
$$

OHZ036-037-039>041-045>050-054>059-063>069-073>076-082>088-151600-
  CENTRAL AND SOUTHEAST OHIO

CITY           SKY/WX    TMP DP  RH WIND       PRES   REMARKS
COLUMBUS       PTSUNNY   23  16  74 SW9       29.99F WCI  13
OSU AIRPORT    PTSUNNY   23  17  78 SW9       29.98F WCI  13
BOLTON FIELD   MOSUNNY   23  19  86 SW9       29.99S WCI  13
RICKENBACK AFB NOT AVBL
NEWARK         FAIR      23  17  78 SW7       29.98F WCI  15
MARION         NOT AVBL
LANCASTER      PTSUNNY   23  18  81 SW7       30.00S WCI  15
ZANESVILLE     FAIR      22  16  78 S5        29.99S WCI  16
NEW PHILLY     FAIR      17  14  88 SE3       29.99F FOG
$$



USA.gov is the U.S. government's official web portal to all federal, state and local government web resources and services.